Flag for Germany Weather past 2 weeks in Meissen, Saxony, Germany

Now
54 °F

Passing clouds.


Feels Like: 50 °F
Forecast: 47 / 67 °F
Wind: 10 mph from West

Location: Dresden-Klotzsche

Current Time: Aug 20, 2014 at 9:16:18 AM

Latest Report: Aug 20, 2014 at 8:50 AM


Visibility: N/A

Pressure: 29.98 "Hg

Humidity: 67%

Dew point: 43 °F

Location of MeissenLocation

Historic Weather in Meissen — Graph

°F

Meissen temperature yesterday

Maximum temperature yesterday: 68 °F (at 5:20 PM)
Minimum temperature yesterday: 52 °F (at 5:20 AM)
Average temperature yesterday: 60 °F

Past Weeks' High & Low Weather Summary

 TemperatureHumidityPressure
High84 °F (Aug 10, 4:20 PM)100% (Aug 5, 8:20 AM)30.09 "Hg (Aug 5, 8:20 AM)
Low50 °F (Aug 20, 5:20 AM)33% (Aug 12, 3:20 PM)29.65 "Hg (Aug 13, 6:50 PM)
Average65 °F69%29.90 "Hg
* Reported Aug 5 7:20 AM — Aug 20 7:50 AM, Meissen, Weather by CustomWeather, © 2014

Note: Actual official high and low records may vary slightly from our data, if they occured in-between our weather recording intervals... More about our weather records

Advertising

Meissen weather history for previous 24 hours

 ConditionsComfort  
Time TempWeatherWind HumidityBarometerVisibility
7:50 AM
Aug 20
52 °FSunny.9 mph77%29.98 "Hg10 mi
7:20 AM52 °FSunny.9 mph72%29.98 "Hg10 mi
6:50 AM50 °FClear.9 mph76%29.95 "Hg10 mi
6:20 AM50 °FClear.6 mph76%29.95 "Hg10 mi
5:50 AM50 °FClear.6 mph76%29.95 "Hg10 mi
5:20 AM50 °FClear.6 mph76%29.95 "Hg10 mi
4:50 AM52 °FClear.6 mph77%29.95 "Hg10 mi
4:20 AM52 °FClear.7 mph77%29.92 "Hg10 mi
3:50 AM52 °FClear.8 mph82%29.92 "Hg10 mi
3:20 AM54 °FPassing clouds.7 mph77%29.92 "HgN/A
2:50 AM54 °FClear.7 mph77%29.92 "Hg10 mi
2:20 AM54 °FClear.8 mph82%29.92 "Hg10 mi
1:50 AM54 °FClear.9 mph82%29.92 "Hg10 mi
1:20 AM54 °FClear.7 mph82%29.89 "Hg10 mi
12:50 AM54 °FClear.5 mph82%29.89 "Hg10 mi
12:20 AM54 °FClear.2 mph88%29.92 "Hg10 mi
11:50 PM
Aug 19
54 °FLight rain. Partly cloudy.5 mph88%29.92 "HgN/A
11:20 PM55 °FPassing clouds.5 mph77%29.92 "HgN/A
10:50 PM55 °FPassing clouds.6 mph77%29.89 "HgN/A
10:20 PM55 °FPartly cloudy.8 mph77%29.89 "HgN/A
9:50 PM55 °FPassing clouds.13 mph77%29.89 "HgN/A
9:20 PM63 °FClear.8 mph52%29.86 "Hg10 mi
8:50 PM63 °FSunny.8 mph52%29.83 "Hg10 mi
8:20 PM64 °FSunny.7 mph52%29.83 "Hg10 mi
7:50 PM64 °FSunny.6 mph52%29.83 "Hg10 mi
7:20 PM66 °FSunny.6 mph46%29.83 "Hg10 mi
6:50 PM66 °FSunny.6 mph46%29.80 "Hg10 mi
6:20 PM68 °FPartly sunny.8 mph40%29.80 "HgN/A
5:50 PM68 °FPartly sunny.7 mph40%29.83 "HgN/A
5:20 PM68 °FSunny.7 mph46%29.83 "Hg10 mi
4:50 PM66 °FSunny.7 mph46%29.83 "Hg10 mi
4:20 PM66 °FSunny.7 mph46%29.83 "Hg10 mi
3:50 PM66 °FSunny.6 mph46%29.83 "Hg10 mi
3:20 PM66 °FSunny.9 mph46%29.83 "Hg10 mi
2:50 PM66 °FSunny.7 mph46%29.83 "Hg10 mi
2:20 PM66 °FSunny.8 mph46%29.83 "Hg10 mi
1:50 PM66 °FScattered clouds.8 mph46%29.86 "HgN/A
1:20 PM66 °FScattered clouds.10 mph49%29.86 "HgN/A
12:50 PM66 °FScattered clouds.12 mph49%29.86 "HgN/A
12:20 PM64 °FScattered clouds.10 mph49%29.86 "HgN/A
11:50 AM64 °FScattered clouds.12 mph56%29.86 "HgN/A
11:20 AM63 °FScattered clouds.8 mph59%29.86 "HgN/A
10:50 AM61 °FPassing clouds.9 mph55%29.86 "HgN/A
10:20 AM61 °FPassing clouds.9 mph63%29.86 "HgN/A
9:50 AM61 °FPassing clouds.8 mph63%29.86 "HgN/A
9:20 AM59 °FPassing clouds.10 mph68%29.86 "HgN/A
Weather by CustomWeather, © 2014

See weather overviewHow to use our weather pages